{"data":{"norad_id":59171,"intl_designator":"2024-044V","name":"STARLINK-31344","alt_names":[],"object_type":"PAYLOAD","status":"ACTIVE","operator":null,"country":"US","launch_date":"2024-03-04","launch_site_code":"AFETR","launch_vehicle":null,"mission":null,"orbit_class":"UNKNOWN","rcs_meters":null,"size_class":null,"mass_kg":null,"dimensions":null,"purposes":["comms"],"wikipedia_slug":null,"has_3d_model":false,"image_url":null,"decayed_at":null,"tle_current":{"epoch":"2026-05-24T22:30:56.039040Z","epoch_age_seconds":76599,"freshness":"FRESH","line1":"1 59171U 24044V   26144.93814860  .00002453  00000+0  98665-4 0  9994","line2":"2 59171  43.0075  36.6849 0001479 255.2689 104.7999 15.27569352125257","mean_motion":15.27569352,"eccentricity":0.0001479,"inclination_deg":43.0075,"raan_deg":36.6849,"arg_perigee_deg":255.2689,"mean_anomaly_deg":104.7999,"bstar":9.8665e-5,"rev_number":12525,"period_min":94.267405804827,"perigee_km":482.06620602819,"apogee_km":484.09575430672,"semimajor_km":6861.2179801675,"source":"CELESTRAK","updated_at":"2026-05-25T13:38:18.836580Z"}}}